Volver al catálogo

ATLAS 5 CENTAUR DEB

LostHEO
NORAD 46653·DEBRIS·🇺🇸 United States

Lanzado Sep 8, 2009 desde Cape Canaveral Space Force Station

Loading…

Próximos Pases (próximas 24 horas)

TLE

ObsoletoSource: Space-Track

Época: Oct 20, 2024, 09:47 UTC

1 46653U 09047C   24294.40831247 -.00000053  00000-0  00000-0 0  9993
2 46653  23.4826 259.8587 5114823 152.4171 248.0768  1.94961697 34914

Sigue ATLAS 5 CENTAUR DEB en tiempo real con AllMySat

Download on the App Store